Home > Weather > Gainesville > Past weeks

Flag for USA Past Weather in Gainesville, Florida, USA — Yesterday and Last 2 Weeks

Now
75 °F

Clear.


Feels Like: 74 °F
Forecast: 73 / 87 °F
Wind: 6 mph from Northeast

Location: Gainesville Regional Airport

Current Time: Aug 30, 2016 at 1:21:20 AM

Latest Report: Aug 30, 2016 at 12:53 AM


Visibility: 10 mi

Pressure: 29.97 "Hg

Humidity: 88%

Dew Point: 71 °F

Location of GainesvilleLocation

Past Weather in Gainesville — Graph

°F

Gainesville Temperature Yesterday

Maximum temperature yesterday: 93 °F (at 12:53 PM)
Minimum temperature yesterday: 75 °F (at 9:53 PM)
Average temperature yesterday: 80 °F

High & Low Weather Summary for the Past Weeks

 TemperatureHumidityPressure
High96 °F (Aug 22, 4:53 PM)100% (Aug 15, 5:00 AM)30.19 "Hg (Aug 15, 5:00 AM)
Low71 °F (Aug 27, 6:53 AM)41% (Aug 22, 4:53 PM)29.90 "Hg (Aug 20, 5:53 PM)
Average82 °F75%30.06 "Hg
* Reported Aug 14 11:53 PM — Aug 29 11:53 PM, Gainesville, Weather by CustomWeather, © 2016

Note: Actual official high and low records may vary slightly from our data, if they occured in-between our weather recording intervals... More about our weather records

Advertising

Gainesville Weather History for the Previous 24 Hours

Scroll right to see more
 ConditionsComfort  
Time TempWeatherWind HumidityBarometerVisibility
11:53 PM
Mon, Aug 29
76 °FClear.6 mph88%29.98 "Hg10 mi
10:53 PM75 °FPassing clouds.6 mph90%29.98 "Hg10 mi
9:53 PM75 °FPassing clouds.No wind90%29.97 "Hg10 mi
8:53 PM77 °FClear.5 mph90%29.96 "Hg10 mi
7:53 PM80 °FPassing clouds.6 mph85%29.96 "Hg10 mi
6:53 PM80 °FSunny.3 mph87%29.95 "Hg10 mi
5:53 PM79 °FLight rain. Scattered clouds.6 mph88%29.95 "Hg10 mi
4:53 PM78 °FLight rain. Scattered clouds.3 mph87%29.94 "Hg10 mi
4:04 PM79 °FThundershowers. Mostly cloudy.14 mph84%29.96 "Hg6 mi
3:53 PM81 °FThunderstorms. Broken clouds.15 mph79%29.95 "Hg10 mi
3:02 PM81 °FThunderstorms. Cloudy.No wind82%29.96 "Hg7 mi
1:53 PM92 °FScattered clouds.14 mph52%29.95 "Hg10 mi
12:53 PM93 °FSunny.13 mph50%29.96 "Hg10 mi
11:53 AM90 °FPassing clouds.7 mph56%29.99 "Hg10 mi
10:53 AM88 °FPassing clouds.12 mph59%30.00 "Hg10 mi
9:53 AM85 °FSunny.13 mph70%29.98 "Hg10 mi
8:53 AM82 °FSunny.6 mph82%29.99 "Hg10 mi
7:53 AM78 °FClear.5 mph90%29.98 "Hg10 mi
6:53 AM77 °FClear.5 mph90%29.97 "Hg10 mi
5:53 AM76 °FClear.6 mph94%29.97 "Hg10 mi
4:53 AM77 °FClear.6 mph94%29.96 "Hg10 mi
3:53 AM77 °FClear.5 mph90%29.96 "Hg10 mi
2:53 AM77 °FClear.5 mph94%29.97 "Hg10 mi
1:53 AM77 °FPassing clouds.5 mph90%29.98 "Hg10 mi
Weather by CustomWeather, © 2016

See weather overviewHow to use our weather pages